Time[GMT],salinity[psu](1m),sigma_t[kg/m^3](1m),conductivity[msiemens/cm](1m),temperature[C](1m)
2017-05-03 15:00,36.201,23.503,57.251,27.38
2017-05-03 16:00,36.206,23.485,57.330,27.44
2017-05-03 17:00,36.196,23.459,57.376,27.50
2017-05-03 18:00,36.194,23.472,57.326,27.46
2017-05-03 19:00,36.191,23.469,57.325,27.46
2017-05-03 20:00,36.239,23.462,57.540,27.59
2017-05-03 21:00,36.292,23.496,57.631,27.61
2017-05-03 22:00,36.283,23.506,57.564,27.56
2017-05-03 23:00,36.284,23.513,57.542,27.54
2017-05-04 00:00,36.279,23.535,57.449,27.46
2017-05-04 01:00,36.268,23.556,57.336,27.37
2017-05-04 02:00,36.248,23.522,57.372,27.43
2017-05-04 03:00,36.239,23.517,57.354,27.42
2017-05-04 04:00,36.222,23.509,57.312,27.41
2017-05-04 05:00,36.209,23.503,57.282,27.40
2017-05-04 06:00,36.214,23.509,57.283,27.39
2017-05-04 07:00,36.224,23.525,57.267,27.36
2017-05-04 08:00,36.270,23.540,57.401,27.43
2017-05-04 09:00,36.272,23.547,57.385,27.41
2017-05-04 10:00,36.269,23.548,57.366,27.40
2017-05-04 11:00,36.276,23.567,57.331,27.35
2017-05-04 12:00,36.275,23.558,57.360,27.38
2017-05-04 13:00,36.266,23.543,57.372,27.41
2017-05-04 14:00,36.181,23.483,57.237,27.39
2017-05-04 15:00,36.179,23.469,57.279,27.43
2017-05-04 16:00,36.191,23.465,57.340,27.47
2017-05-04 17:00,36.199,23.458,57.395,27.51
2017-05-04 18:00,36.199,23.454,57.406,27.52
2017-05-04 19:00,36.183,23.438,57.397,27.54
2017-05-04 20:00,36.183,23.437,57.402,27.54
2017-05-04 21:00,36.176,23.421,57.428,27.57
2017-05-04 22:00,36.192,23.432,57.452,27.57
2017-05-04 23:00,36.207,23.440,57.485,27.59
2017-05-05 00:00,36.190,23.433,57.443,27.57
2017-05-05 01:00,36.170,23.430,57.377,27.53
2017-05-05 02:00,36.188,23.462,57.338,27.47
2017-05-05 03:00,36.193,23.482,57.291,27.42
2017-05-05 04:00,36.210,23.505,57.279,27.39
2017-05-05 05:00,36.212,23.512,57.264,27.38
2017-05-05 06:00,36.205,23.511,57.238,27.36
2017-05-05 07:00,36.180,23.477,57.255,27.41
2017-05-05 08:00,36.187,23.445,57.389,27.52
2017-05-05 09:00,36.274,23.514,57.502,27.51
2017-05-05 10:00,36.260,23.518,57.431,27.47
2017-05-05 11:00,36.262,23.520,57.435,27.47
2017-05-05 12:00,36.273,23.536,57.423,27.44
2017-05-05 13:00,36.276,23.543,57.411,27.43
2017-05-05 14:00,36.274,23.527,57.460,27.48
2017-05-05 15:00,36.254,23.491,57.497,27.54
2017-05-05 16:00,36.245,23.473,57.525,27.57
2017-05-05 17:00,36.210,23.452,57.458,27.56
2017-05-05 18:00,36.199,23.454,57.409,27.53
2017-05-05 19:00,36.204,23.457,57.418,27.53
2017-05-05 20:00,36.197,23.447,57.423,27.54
2017-05-05 21:00,36.186,23.439,57.409,27.54
2017-05-05 22:00,36.187,23.409,57.511,27.63
2017-05-05 23:00,36.207,23.429,57.522,27.62
2017-05-06 00:00,36.207,23.430,57.520,27.62
2017-05-06 01:00,36.193,23.424,57.482,27.60
2017-05-06 02:00,36.181,23.449,57.355,27.50
2017-05-06 03:00,36.189,23.447,57.391,27.52
2017-05-06 04:00,36.215,23.469,57.417,27.51
2017-05-06 05:00,36.229,23.492,57.396,27.48
2017-05-06 06:00,36.235,23.504,57.383,27.45
2017-05-06 07:00,36.242,23.511,57.384,27.45
2017-05-06 08:00,36.245,23.519,57.368,27.43
2017-05-06 09:00,36.208,23.487,57.332,27.44
2017-05-06 10:00,36.167,23.451,57.294,27.46
2017-05-06 11:00,36.193,23.456,57.381,27.51
2017-05-06 12:00,36.276,23.503,57.546,27.55
2017-05-06 13:00,36.271,23.503,57.525,27.54
2017-05-06 14:00,36.266,23.490,57.549,27.57
2017-05-06 15:00,36.266,23.477,57.591,27.61
2017-05-06 16:00,36.264,23.461,57.640,27.65
2017-05-06 17:00,36.215,23.433,57.544,27.63
2017-05-06 18:00,36.217,23.434,57.548,27.63
2017-05-06 19:00,36.232,23.450,57.551,27.61
2017-05-06 20:00,36.248,23.443,57.636,27.67
2017-05-06 21:00,36.241,23.443,57.611,27.66
2017-05-06 22:00,36.238,23.443,57.596,27.65
2017-05-06 23:00,36.234,23.445,57.576,27.63
2017-05-07 00:00,36.234,23.446,57.573,27.63
2017-05-07 01:00,36.236,23.447,57.575,27.63
2017-05-07 02:00,36.235,23.445,57.579,27.64
2017-05-07 03:00,36.232,23.443,57.575,27.63
2017-05-07 04:00,36.231,23.444,57.568,27.63
2017-05-07 05:00,36.228,23.445,57.553,27.62
2017-05-07 06:00,36.220,23.443,57.527,27.61
2017-05-07 07:00,36.233,23.474,57.474,27.54
2017-05-07 08:00,36.241,23.484,57.471,27.53
2017-05-07 09:00,36.254,23.505,57.452,27.49
2017-05-07 10:00,36.234,23.483,57.448,27.52
2017-05-07 11:00,36.233,23.480,57.453,27.52
2017-05-07 12:00,36.223,23.454,57.500,27.58
2017-05-07 13:00,36.222,23.446,57.524,27.60
2017-05-07 14:00,36.223,23.443,57.537,27.61
2017-05-07 15:00,36.227,23.435,57.583,27.65
2017-05-07 16:00,36.238,23.437,57.618,27.67
2017-05-07 17:00,36.250,23.448,57.627,27.66
2017-05-07 18:00,36.251,23.439,57.659,27.69
2017-05-07 19:00,36.232,23.395,57.735,27.78
2017-05-07 20:00,36.231,23.404,57.701,27.75
2017-05-07 21:00,36.242,23.434,57.643,27.69
2017-05-07 22:00,36.249,23.443,57.639,27.67
2017-05-07 23:00,36.244,23.451,57.595,27.64
2017-05-08 00:00,36.244,23.455,57.579,27.62
2017-05-08 01:00,36.240,23.453,57.572,27.62
2017-05-08 02:00,36.237,23.450,57.571,27.63
2017-05-08 03:00,36.235,23.445,57.579,27.64
2017-05-08 04:00,36.225,23.436,57.570,27.64
2017-05-08 05:00,36.221,23.422,57.601,27.67
2017-05-08 06:00,36.226,23.434,57.580,27.65
2017-05-08 07:00,36.223,23.434,57.569,27.64
2017-05-08 08:00,36.229,23.458,57.513,27.58
2017-05-08 09:00,36.240,23.464,57.535,27.59
2017-05-08 10:00,36.247,23.493,57.465,27.52
2017-05-08 11:00,36.250,23.488,57.495,27.54
2017-05-08 12:00,36.211,23.462,57.429,27.53
2017-05-08 13:00,36.232,23.464,57.505,27.57
2017-05-08 14:00,36.220,23.429,57.575,27.65
2017-05-08 15:00,36.223,23.419,57.618,27.69
2017-05-08 16:00,36.244,23.428,57.671,27.71
2017-05-08 17:00,36.250,23.446,57.638,27.67
2017-05-08 18:00,36.254,23.461,57.600,27.63
2017-05-08 19:00,36.262,23.451,57.665,27.68
2017-05-08 20:00,36.261,23.449,57.671,27.69
2017-05-08 21:00,36.247,23.434,57.661,27.70
2017-05-08 22:00,36.231,23.417,57.660,27.71
2017-05-08 23:00,36.231,23.426,57.628,27.69
2017-05-09 00:00,36.237,23.443,57.595,27.65
2017-05-09 01:00,36.237,23.447,57.581,27.63
2017-05-09 02:00,36.238,23.452,57.566,27.62
2017-05-09 03:00,36.242,23.459,57.560,27.61
2017-05-09 04:00,36.243,23.450,57.597,27.64
2017-05-09 05:00,36.252,23.481,57.524,27.56
2017-05-09 06:00,36.253,23.488,57.503,27.54
2017-05-09 07:00,36.250,23.491,57.484,27.53
2017-05-09 08:00,36.251,23.490,57.492,27.53
2017-05-09 09:00,36.236,23.443,57.592,27.65
2017-05-09 10:00,36.233,23.437,57.596,27.65
2017-05-09 11:00,36.230,23.440,57.577,27.64
2017-05-09 12:00,36.235,23.443,57.584,27.64
2017-05-09 13:00,36.232,23.435,57.601,27.66
2017-05-09 14:00,36.228,23.416,57.649,27.71
2017-05-09 15:00,36.243,23.405,57.747,27.78
2017-05-09 16:00,36.265,23.440,57.713,27.72
2017-05-09 17:00,36.245,23.357,57.913,27.93
2017-05-09 18:00,36.236,23.325,57.984,28.00
2017-05-09 19:00,36.254,23.358,57.945,27.95
2017-05-09 20:00,36.228,23.338,57.911,27.95
2017-05-09 21:00,36.254,23.413,57.761,27.78
2017-05-09 22:00,36.087,23.337,57.361,27.63
2017-05-09 23:00,36.189,23.238,58.089,28.16
2017-05-10 00:00,35.989,23.105,57.746,28.11
2017-05-10 01:00,36.089,23.185,57.875,28.10
2017-05-10 02:00,36.145,23.285,57.758,27.92
2017-05-10 03:00,36.238,23.438,57.614,27.66
2017-05-10 04:00,36.247,23.479,57.513,27.56
2017-05-10 05:00,36.233,23.459,57.526,27.59
2017-05-10 06:00,36.234,23.469,57.496,27.56
2017-05-10 07:00,36.199,23.395,57.604,27.71
2017-05-10 08:00,36.174,23.347,57.671,27.80
2017-05-10 09:00,36.180,23.353,57.670,27.79
2017-05-10 10:00,36.197,23.376,57.659,27.76
2017-05-10 11:00,36.208,23.393,57.648,27.73
2017-05-10 12:00,36.209,23.386,57.673,27.76
2017-05-10 13:00,36.214,23.377,57.723,27.80
2017-05-10 14:00,36.209,23.346,57.810,27.88
2017-05-10 15:00,36.195,23.329,57.810,27.90
2017-05-10 16:00,36.126,23.249,57.804,27.98
2017-05-10 17:00,36.231,23.392,57.741,27.79
2017-05-10 18:00,36.210,23.303,57.954,28.01
2017-05-10 19:00,36.201,23.329,57.833,27.91
2017-05-10 20:00,36.210,23.378,57.707,27.78
2017-05-10 21:00,36.182,23.382,57.583,27.71
2017-05-10 22:00,36.213,23.395,57.661,27.74
2017-05-10 23:00,36.194,23.389,57.608,27.71
2017-05-11 00:00,36.148,23.292,57.749,27.90
2017-05-11 01:00,36.073,23.252,57.589,27.85
2017-05-11 02:00,36.037,23.210,57.585,27.90
2017-05-11 03:00,36.103,23.256,57.695,27.91
2017-05-11 04:00,36.079,23.240,57.650,27.90
2017-05-11 05:00,36.113,23.277,57.659,27.87
2017-05-11 06:00,36.125,23.274,57.720,27.91
2017-05-11 07:00,36.137,23.283,57.735,27.91
2017-05-11 08:00,36.145,23.289,57.746,27.91
2017-05-11 09:00,36.171,23.315,57.763,27.89
2017-05-11 10:00,36.194,23.335,57.783,27.88
2017-05-11 11:00,36.212,23.353,57.800,27.87
2017-05-11 12:00,36.220,23.354,57.824,27.88
2017-05-11 13:00,36.221,23.331,57.906,27.95
2017-05-11 14:00,36.232,23.286,58.098,28.11
2017-05-11 15:00,36.233,23.176,58.466,28.45
2017-05-11 16:00,36.199,23.132,58.476,28.50
2017-05-11 17:00,36.190,23.080,58.613,28.64
2017-05-11 18:00,36.226,23.087,58.735,28.70
2017-05-11 19:00,36.208,23.161,58.417,28.44
2017-05-11 20:00,36.210,23.285,58.014,28.07
2017-05-11 21:00,36.207,23.287,57.996,28.05
2017-05-11 22:00,36.196,23.300,57.911,27.99
2017-05-11 23:00,36.195,23.312,57.866,27.95
2017-05-12 00:00,36.202,23.326,57.848,27.92
2017-05-12 01:00,36.218,23.315,57.946,27.99
2017-05-12 02:00,36.224,23.347,57.864,27.91
2017-05-12 03:00,36.222,23.363,57.804,27.86
2017-05-12 04:00,36.220,23.372,57.766,27.83
2017-05-12 05:00,36.182,23.289,57.890,27.99
2017-05-12 06:00,36.184,23.293,57.885,27.98
2017-05-12 07:00,36.172,23.268,57.925,28.03
2017-05-12 08:00,36.184,23.292,57.890,27.99
2017-05-12 09:00,36.177,23.284,57.891,28.00
2017-05-12 10:00,36.178,23.285,57.887,27.99
2017-05-12 11:00,36.186,23.302,57.864,27.96
2017-05-12 12:00,36.189,23.293,57.904,27.99
2017-05-12 13:00,36.176,23.273,57.920,28.03
2017-05-12 14:00,36.186,23.233,58.092,28.17
2017-05-12 15:00,36.048,22.928,58.558,28.78
2017-05-12 16:00,36.176,23.073,58.580,28.63
2017-05-12 17:00,36.170,23.030,58.700,28.75
2017-05-12 18:00,36.157,23.013,58.704,28.77
2017-05-12 19:00,36.164,23.023,58.700,28.75
2017-05-12 20:00,36.177,23.059,58.633,28.68
2017-05-12 21:00,36.202,23.125,58.514,28.53
2017-05-12 22:00,36.217,23.166,58.438,28.45
2017-05-12 23:00,36.217,23.205,58.309,28.33
2017-05-13 00:00,36.220,23.254,58.160,28.19
2017-05-13 01:00,36.216,23.280,58.055,28.10
2017-05-13 02:00,36.225,23.260,58.157,28.18
2017-05-13 03:00,36.239,23.285,58.128,28.13
2017-05-13 04:00,36.229,23.276,58.119,28.14
2017-05-13 05:00,36.226,23.282,58.086,28.11
2017-05-13 06:00,36.227,23.292,58.058,28.09
2017-05-13 07:00,36.222,23.272,58.105,28.13
2017-05-13 08:00,36.214,23.273,58.071,28.11
2017-05-13 09:00,36.210,23.278,58.038,28.09
2017-05-13 10:00,36.212,23.284,58.027,28.08
2017-05-13 11:00,36.219,23.300,58.001,28.04
2017-05-13 12:00,36.231,23.316,57.994,28.02
2017-05-13 13:00,36.264,23.339,58.045,28.03
2017-05-13 14:00,36.252,23.284,58.183,28.17
2017-05-13 15:00,36.285,23.296,58.273,28.21
2017-05-13 16:00,36.294,23.290,58.328,28.24
2017-05-13 17:00,36.292,23.274,58.370,28.29
2017-05-13 18:00,36.281,23.221,58.504,28.42
2017-05-13 19:00,36.252,23.199,58.467,28.43
2017-05-13 20:00,36.260,23.213,58.448,28.40
2017-05-13 21:00,36.280,23.251,58.400,28.33
2017-05-13 22:00,36.254,23.242,58.330,28.30
2017-05-13 23:00,36.254,23.273,58.228,28.21
2017-05-14 00:00,36.258,23.288,58.191,28.17
2017-05-14 01:00,36.255,23.298,58.146,28.13
2017-05-14 02:00,36.257,23.302,58.143,28.12
2017-05-14 03:00,36.299,23.332,58.207,28.13
2017-05-14 04:00,36.313,23.339,58.241,28.14
2017-05-14 05:00,36.310,23.348,58.197,28.10
2017-05-14 06:00,36.312,23.354,58.185,28.09
2017-05-14 07:00,36.310,23.355,58.175,28.08
2017-05-14 08:00,36.303,23.350,58.166,28.08
2017-05-14 09:00,36.290,23.337,58.158,28.09
2017-05-14 10:00,36.292,23.338,58.160,28.09
2017-05-14 11:00,36.297,23.343,58.166,28.09
2017-05-14 12:00,36.293,23.333,58.181,28.11
2017-05-14 13:00,36.296,23.331,58.202,28.13
2017-05-14 14:00,36.302,23.327,58.237,28.15
2017-05-14 15:00,36.306,23.309,58.313,28.22
2017-05-14 16:00,36.308,23.290,58.382,28.28
2017-05-14 17:00,36.328,23.307,58.402,28.27
2017-05-14 18:00,36.328,23.318,58.368,28.24
2017-05-14 19:00,36.331,23.313,58.393,28.26
2017-05-14 20:00,36.336,23.309,58.429,28.28
2017-05-14 21:00,36.335,23.312,58.412,28.27
2017-05-14 22:00,36.338,23.317,58.411,28.26
2017-05-14 23:00,36.333,23.304,58.436,28.29
2017-05-15 00:00,36.332,23.314,58.397,28.26
2017-05-15 01:00,36.334,23.323,58.376,28.24
2017-05-15 02:00,36.334,23.333,58.339,28.20
2017-05-15 03:00,36.331,23.356,58.254,28.13
2017-05-15 04:00,36.325,23.357,58.229,28.11
2017-05-15 05:00,36.322,23.353,58.227,28.12
2017-05-15 06:00,36.315,23.345,58.228,28.13
2017-05-15 07:00,36.318,23.352,58.215,28.11
2017-05-15 08:00,36.316,23.347,58.224,28.12
2017-05-15 09:00,36.326,23.368,58.194,28.08
2017-05-15 10:00,36.321,23.372,58.162,28.06
2017-05-15 11:00,36.318,23.376,58.136,28.04
2017-05-15 12:00,36.316,23.369,58.149,28.05
2017-05-15 13:00,36.312,23.357,58.176,28.08
2017-05-15 14:00,36.306,23.334,58.231,28.14
2017-05-15 15:00,36.296,23.316,58.248,28.17
2017-05-15 16:00,36.308,23.282,58.409,28.30
2017-05-15 17:00,36.310,23.271,58.451,28.34
2017-05-15 18:00,36.293,23.251,58.455,28.36
2017-05-15 19:00,36.273,23.234,58.428,28.36
2017-05-15 20:00,36.258,23.239,58.357,28.32
2017-05-15 21:00,36.251,23.248,58.298,28.27
2017-05-15 22:00,36.254,23.268,58.244,28.22
2017-05-15 23:00,36.267,23.281,58.251,28.21
2017-05-16 00:00,36.270,23.282,58.258,28.21
2017-05-16 01:00,36.279,23.290,58.269,28.21
2017-05-16 02:00,36.269,23.268,58.304,28.25
2017-05-16 03:00,36.266,23.280,58.252,28.21
2017-05-16 04:00,36.265,23.274,58.266,28.23
2017-05-16 05:00,36.267,23.273,58.277,28.23
2017-05-16 06:00,36.252,23.272,58.225,28.20
2017-05-16 07:00,36.239,23.264,58.198,28.20
2017-05-16 08:00,36.228,23.257,58.178,28.19
2017-05-16 09:00,36.229,23.256,58.186,28.20
2017-05-16 10:00,36.241,23.289,58.121,28.12
2017-05-16 11:00,36.240,23.297,58.094,28.10
2017-05-16 12:00,36.246,23.306,58.089,28.09
2017-05-16 13:00,36.243,23.296,58.109,28.11
2017-05-16 14:00,36.239,23.276,58.158,28.16
2017-05-16 15:00,36.238,23.265,58.193,28.19
2017-05-16 16:00,36.235,23.225,58.312,28.31
2017-05-16 17:00,36.230,23.209,58.344,28.34
2017-05-16 18:00,36.222,23.232,58.240,28.26
2017-05-16 19:00,36.225,23.243,58.216,28.23
2017-05-16 20:00,36.229,23.252,58.198,28.21
2017-05-16 21:00,36.246,23.277,58.185,28.18
2017-05-16 22:00,36.256,23.288,58.183,28.16
2017-05-16 23:00,36.258,23.294,58.174,28.15
2017-05-17 00:00,36.257,23.299,58.153,28.13
2017-05-17 01:00,36.255,23.301,58.140,28.12
2017-05-17 02:00,36.253,23.298,58.140,28.13
2017-05-17 03:00,36.216,23.213,58.280,28.30
2017-05-17 04:00,36.220,23.251,58.168,28.19
2017-05-17 05:00,36.221,23.260,58.142,28.17
2017-05-17 06:00,36.216,23.245,58.169,28.20
2017-05-17 07:00,36.224,23.262,58.147,28.17
2017-05-17 08:00,36.230,23.280,58.112,28.13
2017-05-17 09:00,36.254,23.314,58.091,28.08
2017-05-17 10:00,36.229,23.296,58.054,28.08
2017-05-17 11:00,36.235,23.303,58.056,28.07
2017-05-17 12:00,36.242,23.311,58.053,28.06
2017-05-17 13:00,36.243,23.308,58.069,28.07
2017-05-17 14:00,36.244,23.306,58.078,28.08
2017-05-17 15:00,36.243,23.296,58.109,28.11
2017-05-17 16:00,36.238,23.276,58.155,28.16
2017-05-17 17:00,36.234,23.262,58.186,28.19
2017-05-17 18:00,36.234,23.255,58.207,28.21
2017-05-17 19:00,36.236,23.259,58.202,28.21
2017-05-17 20:00,36.238,23.265,58.194,28.19
2017-05-17 21:00,36.245,23.275,58.185,28.18
2017-05-17 22:00,36.259,23.301,58.151,28.13
2017-05-17 23:00,36.270,23.319,58.135,28.10
2017-05-18 00:00,36.274,23.329,58.121,28.08
2017-05-18 01:00,36.273,23.330,58.111,28.07
2017-05-18 02:00,36.276,23.338,58.096,28.06
2017-05-18 03:00,36.281,23.345,58.094,28.05
2017-05-18 04:00,36.277,23.348,58.068,28.03
2017-05-18 05:00,36.265,23.327,58.093,28.07
2017-05-18 06:00,36.253,23.304,58.121,28.11
2017-05-18 07:00,36.256,23.315,58.095,28.08
2017-05-18 08:00,36.273,23.342,58.072,28.04
2017-05-18 09:00,36.280,23.346,58.089,28.04
2017-05-18 10:00,36.290,23.366,58.062,28.01
2017-05-18 11:00,36.300,23.378,58.057,27.99
2017-05-18 12:00,36.306,23.384,58.062,27.99
2017-05-18 13:00,36.308,23.383,58.074,27.99
2017-05-18 14:00,36.311,23.380,58.098,28.01
2017-05-18 15:00,36.313,23.373,58.127,28.04
2017-05-18 16:00,36.311,23.365,58.146,28.06
2017-05-18 17:00,36.303,23.345,58.179,28.10
2017-05-18 18:00,36.299,23.339,58.184,28.11
2017-05-18 19:00,36.301,23.322,58.249,28.16
2017-05-18 20:00,36.297,23.320,58.239,28.16
2017-05-18 21:00,36.304,23.333,58.224,28.14
2017-05-18 22:00,36.307,23.341,58.209,28.12
2017-05-18 23:00,36.314,23.355,58.189,28.09
2017-05-19 00:00,36.309,23.352,58.181,28.09
2017-05-19 01:00,36.286,23.320,58.195,28.13
2017-05-19 02:00,36.282,23.317,58.190,28.13
2017-05-19 03:00,36.285,23.323,58.183,28.12
2017-05-19 04:00,36.288,23.324,58.191,28.13
2017-05-19 05:00,36.288,23.329,58.175,28.11
2017-05-19 06:00,36.288,23.328,58.178,28.11
2017-05-19 07:00,36.299,23.346,58.162,28.09
2017-05-19 08:00,36.299,23.369,58.086,28.02
2017-05-19 09:00,36.305,23.375,58.088,28.01
2017-05-19 10:00,36.313,23.378,58.110,28.02
2017-05-19 11:00,36.315,23.382,58.104,28.01
2017-05-19 12:00,36.317,23.388,58.092,28.00
2017-05-19 13:00,36.309,23.372,58.113,28.03
2017-05-19 14:00,36.310,23.372,58.115,28.03
2017-05-19 15:00,36.314,23.373,58.127,28.04
2017-05-19 16:00,36.309,23.352,58.178,28.09
2017-05-19 17:00,36.312,23.350,58.202,28.11
2017-05-19 18:00,36.312,23.355,58.183,28.09
2017-05-19 19:00,36.320,23.368,58.170,28.07
2017-05-19 20:00,36.316,23.364,58.169,28.07
2017-05-19 21:00,36.314,23.368,58.147,28.05
2017-05-19 22:00,36.306,23.356,58.153,28.07
2017-05-19 23:00,36.303,23.355,58.148,28.07
2017-05-20 00:00,36.302,23.356,58.140,28.06
2017-05-20 01:00,36.303,23.362,58.125,28.05
2017-05-20 02:00,36.301,23.360,58.121,28.05
2017-05-20 03:00,36.301,23.359,58.126,28.05
2017-05-20 04:00,36.305,23.370,58.103,28.03
2017-05-20 05:00,36.304,23.365,58.117,28.04
2017-05-20 06:00,36.307,23.373,58.104,28.02
2017-05-20 07:00,36.309,23.376,58.098,28.02
2017-05-20 08:00,36.307,23.379,58.082,28.00
2017-05-20 09:00,36.306,23.376,58.088,28.01
2017-05-20 10:00,36.305,23.375,58.085,28.01
2017-05-20 11:00,36.304,23.380,58.067,27.99
2017-05-20 12:00,36.307,23.379,58.083,28.00
2017-05-20 13:00,36.311,23.374,58.115,28.03
2017-05-20 14:00,36.308,23.337,58.226,28.13
2017-05-20 15:00,36.306,23.329,58.247,28.15
2017-05-20 16:00,36.301,23.315,58.273,28.18
2017-05-20 17:00,36.301,23.315,58.272,28.18
2017-05-20 18:00,36.303,23.308,58.302,28.21
2017-05-20 19:00,36.308,23.307,58.324,28.22
2017-05-20 20:00,36.310,23.310,58.324,28.22
2017-05-20 21:00,36.309,23.318,58.290,28.19
2017-05-20 22:00,36.309,23.328,58.260,28.16
2017-05-20 23:00,36.308,23.332,58.241,28.15
2017-05-21 00:00,36.309,23.335,58.237,28.14
2017-05-21 01:00,36.306,23.327,58.253,28.16
2017-05-21 02:00,36.312,23.339,58.235,28.14
2017-05-21 03:00,36.311,23.340,58.229,28.13
2017-05-21 04:00,36.312,23.340,58.233,28.13
2017-05-21 05:00,36.310,23.342,58.217,28.12
2017-05-21 06:00,36.305,23.332,58.231,28.14
2017-05-21 07:00,36.304,23.325,58.249,28.16
2017-05-21 08:00,36.304,23.328,58.241,28.15
2017-05-21 09:00,36.310,23.342,58.218,28.12
2017-05-21 10:00,36.311,23.344,58.212,28.12
2017-05-21 11:00,36.313,23.348,58.211,28.11
2017-05-21 12:00,36.310,23.340,58.223,28.13
2017-05-21 13:00,36.307,23.324,58.265,28.17
2017-05-21 14:00,36.306,23.309,58.310,28.21
2017-05-21 15:00,36.307,23.296,58.358,28.26
2017-05-21 16:00,36.308,23.276,58.429,28.32
2017-05-21 17:00,36.309,23.269,58.456,28.34
2017-05-21 18:00,36.308,23.271,58.447,28.33
2017-05-21 19:00,36.322,23.254,58.559,28.42
2017-05-21 20:00,36.314,23.275,58.456,28.33
2017-05-21 21:00,36.322,23.277,58.480,28.35
2017-05-21 22:00,36.325,23.295,58.433,28.30
2017-05-21 23:00,36.330,23.312,58.398,28.26
2017-05-22 00:00,36.332,23.321,58.372,28.24
2017-05-22 01:00,36.330,23.324,58.356,28.22
2017-05-22 02:00,36.335,23.338,58.327,28.19
2017-05-22 03:00,36.332,23.335,58.326,28.19
2017-05-22 04:00,36.335,23.349,58.295,28.16
2017-05-22 05:00,36.337,23.349,58.300,28.16
2017-05-22 06:00,36.341,23.356,58.292,28.15
2017-05-22 07:00,36.342,23.355,58.297,28.15
2017-05-22 08:00,36.347,23.374,58.255,28.11
2017-05-22 09:00,36.342,23.360,58.286,28.14
2017-05-22 10:00,36.341,23.353,58.302,28.16
2017-05-22 11:00,36.339,23.342,58.333,28.19
2017-05-22 12:00,36.328,23.305,58.414,28.28
2017-05-22 13:00,36.316,23.317,58.322,28.21
2017-05-22 14:00,36.310,23.307,58.334,28.23
2017-05-22 15:00,36.312,23.293,58.389,28.28
2017-05-22 16:00,36.329,23.270,58.528,28.38
2017-05-22 17:00,36.339,23.280,58.537,28.38
2017-05-22 18:00,36.341,23.295,58.495,28.34
2017-05-22 19:00,36.344,23.292,58.515,28.35
2017-05-22 20:00,36.365,23.298,58.582,28.38
2017-05-22 21:00,36.376,23.330,58.516,28.31
2017-05-22 22:00,36.380,23.342,58.491,28.28
2017-05-22 23:00,36.384,23.348,58.489,28.27
2017-05-23 00:00,36.387,23.348,58.499,28.28
2017-05-23 01:00,36.385,23.346,58.500,28.28
2017-05-23 02:00,36.384,23.347,58.493,28.28
2017-05-23 03:00,36.385,23.349,58.487,28.27
2017-05-23 04:00,36.389,23.361,58.465,28.25
2017-05-23 05:00,36.407,23.391,58.433,28.19
2017-05-23 06:00,36.406,23.393,58.427,28.19
2017-05-23 07:00,36.410,23.391,58.449,28.20
2017-05-23 08:00,36.411,23.399,58.425,28.18
2017-05-23 09:00,36.407,23.400,58.405,28.17
2017-05-23 10:00,36.409,23.408,58.384,28.15
2017-05-23 11:00,36.402,23.393,58.410,28.18
2017-05-23 12:00,36.403,23.389,58.425,28.19
2017-05-23 13:00,36.401,23.377,58.456,28.22
2017-05-23 14:00,36.393,23.352,58.509,28.28
2017-05-23 15:00,36.391,23.340,58.540,28.31
2017-05-23 16:00,36.391,23.328,58.581,28.35
2017-05-23 17:00,36.392,23.326,58.594,28.36
2017-05-23 18:00,36.402,23.331,58.614,28.37
2017-05-23 19:00,36.412,23.347,58.599,28.34
2017-05-23 20:00,36.414,23.358,58.572,28.31
2017-05-23 21:00,36.420,23.366,58.568,28.30
2017-05-23 22:00,36.421,23.374,58.547,28.28
2017-05-23 23:00,36.423,23.380,58.535,28.27
2017-05-24 00:00,36.423,23.385,58.519,28.25
2017-05-24 01:00,36.425,23.393,58.499,28.23
2017-05-24 02:00,36.426,23.387,58.521,28.25
2017-05-24 03:00,36.424,23.385,58.522,28.25
2017-05-24 04:00,36.429,23.401,58.489,28.22
2017-05-24 05:00,36.437,23.422,58.451,28.17
2017-05-24 06:00,36.439,23.427,58.442,28.16
2017-05-24 07:00,36.442,23.439,58.412,28.13
2017-05-24 08:00,36.440,23.438,58.409,28.13
2017-05-24 09:00,36.441,23.444,58.393,28.11
2017-05-24 10:00,36.444,23.447,58.395,28.11
2017-05-24 11:00,36.445,23.447,58.395,28.11
2017-05-24 12:00,36.445,23.447,58.400,28.11
2017-05-24 13:00,36.441,23.434,58.428,28.14
2017-05-24 14:00,36.441,23.422,58.467,28.18
2017-05-24 15:00,36.441,23.418,58.480,28.19
2017-05-24 16:00,36.446,23.415,58.511,28.21
2017-05-24 17:00,36.450,23.407,58.550,28.24
2017-05-24 18:00,36.442,23.397,58.554,28.26
2017-05-24 19:00,36.410,23.377,58.494,28.24
2017-05-24 20:00,36.395,23.368,58.463,28.24
2017-05-24 21:00,36.429,23.384,58.544,28.27
2017-05-24 22:00,36.444,23.403,58.541,28.24
2017-05-24 23:00,36.422,23.388,58.505,28.24
2017-05-25 00:00,36.398,23.377,58.444,28.22
2017-05-25 01:00,36.402,23.385,58.435,28.20
2017-05-25 02:00,36.403,23.390,58.425,28.19
2017-05-25 03:00,36.416,23.402,58.432,28.18
2017-05-25 04:00,36.426,23.411,58.442,28.18
2017-05-25 05:00,36.427,23.418,58.424,28.16
2017-05-25 06:00,36.432,23.417,58.444,28.17
2017-05-25 07:00,36.428,23.417,58.431,28.16
2017-05-25 08:00,36.411,23.421,58.352,28.11
2017-05-25 09:00,36.410,23.422,58.342,28.11
2017-05-25 10:00,36.416,23.424,58.362,28.12
2017-05-25 11:00,36.415,23.414,58.387,28.14
2017-05-25 12:00,36.420,23.418,58.395,28.14
2017-05-25 13:00,36.425,23.414,58.428,28.17
2017-05-25 14:00,36.431,23.405,58.480,28.21
2017-05-25 15:00,36.434,23.399,58.518,28.24
2017-05-25 16:00,36.436,23.385,58.568,28.28
2017-05-25 17:00,36.436,23.380,58.586,28.30